Back to catalog

STARLINK-4256

AliveCommunicationsVLEO
NORAD 52994·PAYLOAD·🇺🇸 United States

Launched Jul 7, 2022 from Cape Canaveral Space Force Station

Loading…

Next Passes (next 24 hours)

TLE

FreshSource: CelesTrak SupGP

Epoch: Sep 14, 2026, 21:07 UTC

1 52994C 22076J   26257.88034722 -.00015622  00000+0 -46164-3 0  2570
2 52994  53.1572 309.6391 0001151  86.7403 169.5552 15.34392893    12

Track STARLINK-4256 in real time with AllMySat

Download on the App Store